Airfield :
LOGIN :

Register | Disclaimer

   EN    FR    IT 

 










Legend :    VFR   Marginal VFR   IFR   Intensive IFR   Very Intensive IFR
Visi :
Ceiling :
>= 8 km
>= 3000ft
5 to 8 km
1000 to 3000 ft
1500m to 5 km
500 to 1000 ft
800 to 1500m
200 to 500 ft
< 800m
< 200 ft
Symbols :   Thunderstorms  Fog  Heavy snow  Heavy precipitations  Wind > 20 kt
SIGMETs :     Misc.  Thunderstorms  Icing  Turbulence  Mountain Waves  Volcanic Ashes







- Airport Elevation : 39 ft
- IATA code : SUF


LICA - Lamezia Terme

CURRENT METAR :
  • 210050Z 06006KT CAVOK 13/11 Q1020

EXPIRED METARs :
  • 202350Z 08006KT CAVOK 14/12 Q1020
  • 202250Z 09006KT CAVOK 15/13 Q1020

TAF TAF LICA
Valid from the 21 at 00:00 until the 22 at 00:00 UTC


202300Z 2100/2124 07008KT 9999 FEW030
BECMG 2109/2111 26010KT
No reported NOTAMs for that airfield.



MET'MAP, your aeronautical weather chart ! - Copyright ORBIFLY December 2007 - Disclaimer

ORBIFLY MET'MAP TEAM :

Programming & Development : Alexandra Zaïnal
Concept & Development : Baudouin d'Aumeries
Co-Development & Prog : Marc-Olivier Méhu
Technical & hardware support : Manuel Goepfert

Contact : metmap@orbifly.com




SOURCES & CREDITS :

   NOAA